Date String (YYYY-MM-DD hh:mm:ss) UTC,Instrument flags,Ambient pressure (hPa),Sample flow (lpm),Bypass flow (lpm),Sample temperature (°C),Ambient temperature (°C),ASC tube jacket temperature (°C),LED temperature (°C),Box temperature (°C),Sample RH (%),Span deviation,Mass concentration (μg/m³),Mass concentration (μg/m³),Mass concentration (μg/m³)
DateTimeUTC,F1_M11,P_M11,Q1_M11,Q2_M11,T1_M11,T2_M11,T3_M11,T4_M11,T5_M11,U1_M11,ZSPAN_M11,X0_M11,X2_M11,X1_M11
2022-02-24 07:00:00,,0821.1,5.00,0.00,22.7,23.2,00.0,31.6,24.6,05.0,0000.0,0007.92,0004.73,0004.29
2022-02-24 07:01:00,,0821.1,4.99,0.00,22.7,22.9,00.0,31.6,24.6,05.0,0000.0,0008.26,0004.77,0004.31
2022-02-24 07:02:00,,0821.1,5.00,0.00,22.7,22.5,00.0,31.6,24.5,05.0,0000.0,0008.26,0004.78,0004.33
2022-02-24 07:03:00,,0821.1,5.00,0.00,22.6,22.1,00.0,31.5,24.4,05.0,0000.0,0008.32,0004.82,0004.35
2022-02-24 07:04:00,,0821.0,5.02,0.00,22.6,21.8,00.0,31.5,24.2,05.1,0000.0,0008.42,0004.84,0004.36
2022-02-24 07:05:00,,0821.0,4.99,0.00,22.5,21.5,00.0,31.5,24.1,05.1,0000.0,0008.42,0004.84,0004.36
2022-02-24 07:06:00,,0820.9,5.00,0.00,22.4,21.2,00.0,31.5,24.0,05.1,0000.0,0008.44,0004.87,0004.37
2022-02-24 07:07:00,,0820.9,4.99,0.00,22.3,21.0,00.0,31.4,23.9,05.1,0000.0,0008.48,0004.90,0004.39
2022-02-24 07:08:00,,0821.0,5.01,0.00,22.3,21.6,00.0,31.4,24.0,05.1,0000.0,0008.49,0004.93,0004.41
2022-02-24 07:09:00,,0821.0,5.01,0.00,22.5,22.5,00.0,31.5,24.2,05.1,0000.0,0008.40,0004.91,0004.43
2022-02-24 07:10:00,,0821.0,5.00,0.00,22.6,23.1,00.0,31.5,24.5,05.0,0000.0,0007.83,0004.89,0004.43
2022-02-24 07:11:00,,0821.0,4.99,0.00,22.7,22.9,00.0,31.5,24.6,05.0,0000.0,0007.62,0004.89,0004.45
2022-02-24 07:12:00,,0820.9,5.01,0.00,22.7,22.5,00.0,31.5,24.5,05.0,0000.0,0007.63,0004.92,0004.48
2022-02-24 07:13:00,,0820.8,5.00,0.00,22.6,22.2,00.0,31.5,24.4,05.0,0000.0,0007.76,0004.98,0004.49
2022-02-24 07:14:00,,0820.8,4.99,0.00,22.6,21.9,00.0,31.5,24.3,05.0,0000.0,0007.74,0004.99,0004.51
2022-02-24 07:15:00,,0820.8,4.99,0.00,22.5,21.6,00.0,31.5,24.2,05.0,0000.0,0007.65,0004.98,0004.55
2022-02-24 07:16:00,,0820.8,5.02,0.00,22.4,21.5,00.0,31.5,24.1,05.0,0000.0,0007.76,0005.01,0004.57
2022-02-24 07:17:00,,0820.7,4.99,0.00,22.4,21.3,00.0,31.4,24.0,05.0,0000.0,0007.96,0005.09,0004.59
2022-02-24 07:18:00,,0820.6,4.99,0.00,22.4,21.7,00.0,31.4,24.0,05.0,0000.0,0008.05,0005.11,0004.61
2022-02-24 07:19:00,,0820.6,5.01,0.00,22.5,22.5,00.0,31.5,24.2,05.0,0000.0,0008.10,0005.13,0004.62
2022-02-24 07:20:00,,0820.5,4.99,0.00,22.6,23.1,00.0,31.5,24.5,05.0,0000.0,0008.10,0005.14,0004.64
2022-02-24 07:21:00,,0820.5,4.99,0.00,22.7,22.9,00.0,31.5,24.6,05.0,0000.0,0008.13,0005.15,0004.64
2022-02-24 07:22:00,,0820.3,5.01,0.00,22.6,22.5,00.0,31.5,24.5,04.9,0000.0,0008.17,0005.17,0004.66
2022-02-24 07:23:00,,0820.3,4.99,0.00,22.6,22.2,00.0,31.5,24.4,05.0,0000.0,0007.92,0005.16,0004.66
2022-02-24 07:24:00,,0820.3,5.00,0.00,22.5,21.8,00.0,31.5,24.2,05.0,0000.0,0007.82,0005.13,0004.67
2022-02-24 07:25:00,,0820.3,5.00,0.00,22.5,21.5,00.0,31.5,24.1,05.0,0000.0,0007.79,0005.12,0004.67
2022-02-24 07:26:00,,0820.3,4.99,0.00,22.4,21.3,00.0,31.4,24.0,05.0,0000.0,0007.80,0005.12,0004.66
2022-02-24 07:27:00,,0820.3,5.00,0.00,22.4,21.6,00.0,31.4,24.0,05.0,0000.0,0007.70,0005.09,0004.65
2022-02-24 07:28:00,,0820.3,5.00,0.00,22.5,22.4,00.0,31.5,24.2,05.0,0000.0,0008.11,0005.07,0004.64
2022-02-24 07:29:00,,0820.4,5.00,0.00,22.6,23.2,00.0,31.5,24.5,05.0,0000.0,0008.11,0005.05,0004.63
2022-02-24 07:30:00,,0820.4,5.00,0.00,22.7,23.5,00.0,31.6,24.7,04.9,0000.0,0008.26,0005.01,0004.61
2022-02-24 07:31:00,,0820.3,5.01,0.00,22.7,23.0,00.0,31.6,24.6,04.9,0000.0,0008.75,0005.03,0004.60
2022-02-24 07:32:00,,0820.5,5.00,0.00,22.7,22.5,00.0,31.5,24.5,04.9,0000.0,0008.79,0005.02,0004.59
2022-02-24 07:33:00,,0820.5,5.00,0.00,22.6,22.0,00.0,31.5,24.3,05.0,0000.0,0008.77,0005.00,0004.57
2022-02-24 07:34:00,,0820.6,5.00,0.00,22.6,21.7,00.0,31.5,24.2,05.0,0000.0,0008.70,0004.96,0004.54
2022-02-24 07:35:00,,0820.6,5.01,0.00,22.5,21.4,00.0,31.5,24.1,05.0,0000.0,0008.73,0004.92,0004.50
2022-02-24 07:36:00,,0820.6,4.99,0.00,22.4,21.1,00.0,31.5,24.0,05.0,0000.0,0008.82,0004.89,0004.48
2022-02-24 07:37:00,,0820.5,5.01,0.00,22.3,21.0,00.0,31.4,23.9,05.0,0000.0,0009.56,0004.84,0004.44
2022-02-24 07:38:00,,0820.4,4.99,0.00,22.3,21.7,00.0,31.5,24.0,05.0,0000.0,0009.76,0004.88,0004.42
2022-02-24 07:39:00,,0820.3,5.01,0.00,22.5,22.6,00.0,31.5,24.2,05.0,0000.0,0009.50,0004.82,0004.40
2022-02-24 07:40:00,,0820.3,5.00,0.00,22.6,23.3,00.0,31.5,24.5,04.9,0000.0,0009.41,0004.79,0004.38
2022-02-24 07:41:00,,0820.3,5.00,0.00,22.7,23.3,00.0,31.6,24.7,04.9,0000.0,0009.16,0004.77,0004.35
2022-02-24 07:42:00,,0820.3,4.99,0.00,22.7,22.8,00.0,31.6,24.6,04.9,0000.0,0008.75,0004.75,0004.34
2022-02-24 07:43:00,,0820.3,5.01,0.00,22.7,22.4,00.0,31.5,24.4,04.9,0000.0,0008.68,0004.74,0004.33
2022-02-24 07:44:00,,0820.3,5.00,0.00,22.6,21.9,00.0,31.5,24.2,04.9,0000.0,0008.69,0004.72,0004.30
2022-02-24 07:45:00,,0820.4,5.00,0.00,22.5,21.5,00.0,31.5,24.1,04.9,0000.0,0008.93,0004.73,0004.30
2022-02-24 07:46:00,,0820.3,5.00,0.00,22.4,21.2,00.0,31.5,24.0,04.9,0000.0,0008.99,0004.72,0004.30
2022-02-24 07:47:00,,0820.3,5.02,0.00,22.3,21.0,00.0,31.4,23.9,05.0,0000.0,0008.91,0004.74,0004.29
2022-02-24 07:48:00,,0820.3,5.00,0.00,22.4,21.6,00.0,31.5,24.0,05.0,0000.0,0008.20,0004.77,0004.31
2022-02-24 07:49:00,,0820.3,4.99,0.00,22.5,22.4,00.0,31.5,24.2,04.9,0000.0,0008.10,0004.74,0004.31
2022-02-24 07:50:00,,0820.3,5.00,0.00,22.6,23.1,00.0,31.5,24.5,04.9,0000.0,0007.86,0004.73,0004.30
2022-02-24 07:51:00,,0820.2,5.01,0.00,22.7,23.2,00.0,31.5,24.6,04.9,0000.0,0007.96,0004.77,0004.30
2022-02-24 07:52:00,,0820.2,4.98,0.00,22.7,22.8,00.0,31.5,24.5,04.9,0000.0,0008.03,0004.80,0004.32
2022-02-24 07:53:00,,0820.2,5.01,0.00,22.6,22.3,00.0,31.5,24.4,04.9,0000.0,0007.97,0004.78,0004.32
2022-02-24 07:54:00,,0820.1,5.00,0.00,22.6,21.9,00.0,31.5,24.2,04.9,0000.0,0007.94,0004.78,0004.31
2022-02-24 07:55:00,,0820.0,5.01,0.00,22.5,21.6,00.0,31.5,24.1,04.9,0000.0,0007.87,0004.77,0004.32
2022-02-24 07:56:00,,0820.1,4.99,0.00,22.4,21.3,00.0,31.5,24.0,04.9,0000.0,0007.70,0004.77,0004.33
2022-02-24 07:57:00,,0820.1,5.01,0.00,22.4,21.1,00.0,31.4,23.9,04.9,0000.0,0007.59,0004.79,0004.34
2022-02-24 07:58:00,,0820.2,4.99,0.00,22.3,21.1,00.0,31.4,23.9,05.0,0000.0,0007.66,0004.81,0004.35
2022-02-24 07:59:00,,0820.2,5.00,0.00,22.3,21.8,00.0,31.4,24.0,04.9,0000.0,0007.83,0004.80,0004.35
